Location: Barrio Las Umbrías
(40.4173°N, 4.8685°W)
Time: 12:51:11
(UTC+00:00)

Cosmos 1125 Rocket - Pass Details

Date: 17 August 2022
Orbit: 757 x 779 km, 74.0° (Epoch: 28 September)

Event Time Altitude Azimuth Distance (km) Brightness Sun altitude
Rises 19:36:57 0° 336° (NNW) 3,257 7.5 -4.9°
Reaches altitude 10° 19:39:23 10° 331° (NNW) 2,323 6.9 -5.3°
Maximum altitude 19:44:30 53° 256° (WSW) 941 4.4 -6.2°
Drops below altitude 10° 19:49:33 10° 180° (S) 2,293 5.7 -7.1°
Sets 19:51:57 0° 176° (S) 3,212 6.4 -7.5°
